User: anonymous   Login
Location: Newark
(48.7667°N, 7.9833°E)
Time: 16:03:33
(UTC+00:00)
Language:

DIWATA 2B (PO-101) - Orbit

View from above orbital plane
View from above orbital plane
View from above satellite
View from above satellite

Ground track
Ground track

The orbit data is extracted from the following two-line orbital elements,

1 43678U 18084H   19265.47036005 -.00000277  00000-0 -21902-4 0  9993
2 43678  97.8601  19.3528 0010275 354.1797   5.9318 14.91567819 48920
Epoch (UTC): 22 September 2019 11:17:19
Eccentricity: 0.0010275
inclination: 97.8601°
perigee height: 586 km
apogee height: 600 km
right ascension of ascending node: 19.3528°
argument of perigee: 354.1797°
revolutions per day: 14.91567819
mean anomaly at epoch: 5.9318°
orbit number at epoch: 4892

The dashed part of the orbit path shows where the satellite is in the earth's shadow,  

DLR